Simultaneous Nadir Overpasses (SNOs) Predictions

Prediction of SNOs between METOP-B and NOAA-19 Satellite Orbit:

Table of predicted SNOs for the next 14.0 days since TLE Epoch: 6/15/2018
Index Date (METOP-B) Time (METOP-B) Lat,Lon (METOP-B) SZA (METOP-B ) Date (NOAA-19) Time (NOAA-19) Lat,Lon (NOAA-19) SZA (NOAA-19 ) Distance(km) Time Diff (sec)
1 06/17/2018 13:07:30 -78.40, 172.99 124.87 06/17/2018 13:06:26 -78.41, 172.92 124.87 2.12 64
2 06/17/2018 13:58:10 78.40, -19.65 55.14 06/17/2018 13:57:22 78.40, -19.77 55.13 2.60 48
3 06/17/2018 14:48:52 -78.38, 147.54 124.90 06/17/2018 14:48:26 -78.37, 147.68 124.91 3.35 26
4 06/17/2018 15:39:32 78.38, -45.09 55.11 06/17/2018 15:39:22 78.36, -45.00 55.09 3.38 10
5 06/17/2018 16:30:14 -78.36, 122.10 124.92 06/17/2018 16:30:27 -78.36, 122.22 124.91 2.67 13
6 06/17/2018 17:20:54 78.37, -70.54 55.09 06/17/2018 17:21:23 78.36, -70.46 55.09 2.03 29
7 06/17/2018 18:11:36 -78.34, 96.65 124.95 06/17/2018 18:12:28 -78.36, 96.75 124.92 2.78 52
8 06/17/2018 19:02:16 78.35, -95.98 55.06 06/17/2018 19:03:24 78.35, -95.93 55.08 1.15 68
9 06/28/2018 09:16:30 -78.79,-126.98 124.30 06/28/2018 09:15:26 -78.77,-131.42 124.48 95.97 64
10 06/28/2018 10:07:19 78.45, 38.31 55.29 06/28/2018 10:06:14 78.43, 38.23 55.25 3.43 65
11 06/28/2018 10:58:01 -78.43,-154.50 124.74 06/28/2018 10:57:17 -78.42,-154.48 124.75 1.25 44
12 06/28/2018 11:48:41 78.44, 12.86 55.27 06/28/2018 11:48:15 78.42, 12.76 55.25 2.70 26
13 06/28/2018 12:39:23 -78.41,-179.95 124.76 06/28/2018 12:39:18 -78.41,-179.95 124.75 0.39 5
14 06/28/2018 13:30:03 78.42, -12.58 55.26 06/28/2018 13:30:16 78.42, -12.71 55.25 2.77 13
15 06/28/2018 14:20:45 -78.39, 154.61 124.78 06/28/2018 14:21:19 -78.41, 154.58 124.76 2.02 34
16 06/28/2018 15:11:25 78.40, -38.03 55.24 06/28/2018 15:12:16 78.38, -37.94 55.22 3.18 51
17 06/28/2018 16:02:07 -78.37, 129.16 124.80 06/28/2018 16:03:20 -78.40, 129.11 124.76 3.66 73




NCC Satellite Simultaneous Nadir Overpasses (SNOs) Prediction Service
